Home > Weather > Jefferson City > Past weeks

Flag for USA Past Weather in Jefferson City, Missouri, USA — Yesterday and Last 2 Weeks

Now
83 °F

Sunny.


Feels Like: 88 °F
Forecast: 72 / 87 °F
Wind: 6 mph from East

Location: Jefferson City Memorial Airport

Current Time: Jul 25, 2016 at 7:43:50 PM

Latest Report: Jul 25, 2016 at 6:53 PM


Visibility: 10 mi

Pressure: 29.94 "Hg

Humidity: 70%

Dew Point: 72 °F

Location of Jefferson CityLocation

Past Weather in Jefferson City — Graph

°F

Jefferson City Temperature Yesterday

Maximum temperature yesterday: 97 °F (at 4:53 PM)
Minimum temperature yesterday: 78 °F (at 5:53 AM)
Average temperature yesterday: 87 °F

High & Low Weather Summary for the Past Weeks

 TemperatureHumidityPressure
High97 °F (Jul 24, 4:53 PM)100% (Jul 19, 5:53 AM)30.17 "Hg (Jul 19, 5:53 AM)
Low68 °F (Jul 12, 9:53 AM)46% (Jul 15, 1:53 PM)29.78 "Hg (Jul 11, 5:53 PM)
Average81 °F75%29.97 "Hg
* Reported Jul 10 5:53 PM — Jul 25 5:53 PM, Jefferson City, Weather by CustomWeather, © 2016

Note: Actual official high and low records may vary slightly from our data, if they occured in-between our weather recording intervals... More about our weather records

Advertising

Jefferson City Weather History for the Previous 24 Hours

Scroll right to see more
 ConditionsComfort  
Time TempWeatherWind HumidityBarometerVisibility
5:53 PM
Mon, Jul 25
83 °FSunny.5 mph65%29.94 "Hg10 mi
4:53 PM84 °FScattered clouds.7 mph67%29.94 "Hg10 mi
3:53 PM82 °FScattered clouds.5 mph74%29.94 "Hg10 mi
2:53 PM81 °FOvercast.8 mph74%29.96 "Hg10 mi
1:53 PM82 °FBroken clouds.7 mph74%29.98 "Hg10 mi
12:53 PM81 °FScattered clouds.5 mph77%30.01 "Hg10 mi
11:53 AM78 °FPartly sunny.3 mph82%30.02 "Hg10 mi
10:53 AM75 °FScattered clouds.5 mph90%30.02 "Hg10 mi
9:53 AM74 °FPassing clouds.3 mph91%30.00 "Hg10 mi
8:53 AM73 °FPartly sunny.No wind94%29.98 "Hg10 mi
8:03 AM74 °FPassing clouds.3 mph91%30.03 "Hg10 mi
6:53 AM73 °FPassing clouds.No wind94%29.95 "Hg10 mi
6:01 AM74 °FThunderstorms. Mostly cloudy.6 mph91%30.05 "Hg8 mi
5:53 AM74 °FThundershowers. Mostly cloudy.5 mph94%29.99 "Hg10 mi
4:53 AM73 °FPassing clouds.3 mph97%29.95 "Hg10 mi
3:53 AM74 °FLight rain. Passing clouds.3 mph91%29.91 "Hg10 mi
2:53 AM74 °FLight rain. Passing clouds.3 mph91%29.94 "Hg10 mi
1:53 AM75 °FThundershowers. Passing clouds.7 mph90%29.95 "Hg10 mi
12:56 AM75 °FStrong thunderstorms. Fog.14 mph94%30.03 "Hg3 mi
11:53 PM
Sun, Jul 24
81 °FThunderstorms. Overcast.No wind79%29.89 "Hg10 mi
11:03 PM80 °FThunderstorms. Partly cloudy.6 mph76%29.92 "Hg10 mi
10:53 PM85 °FThundershowers. Mostly cloudy.8 mph57%29.88 "Hg10 mi
9:53 PM86 °FPassing clouds.No wind80%29.88 "Hg10 mi
8:53 PM87 °FSunny.No wind75%29.87 "Hg10 mi
7:53 PM91 °FSunny.3 mph64%29.86 "Hg10 mi
Weather by CustomWeather, © 2016

See weather overviewHow to use our weather pages